EW4963 Weather Reports


Display with metric or nautical units.
time (UTC)temp
F
wind
direction
speed
MPH
gust
MPH
rain 1hr
in
rain 24hr
in
rain mn
in
humidity
%
barometer
mb
20220529124706 72 133 4.0 9.0 0.00 0.00 0.00 90 1001.8
20220529124205 72 51 4.0 9.0 0.00 0.00 0.00 89 1001.8
20220529123707 72 146 4.0 9.0 0.00 0.00 0.00 90 1001.8
20220529123207 71 129 4.0 9.0 0.00 0.00 0.00 89 1001.7
20220529122700 71 121 4.0 11.0 0.00 0.00 0.00 89 1001.7
20220529122203 71 215 4.0 11.0 0.00 0.00 0.00 89 1001.7
20220529121700 71 171 3.0 9.0 0.00 0.00 0.00 89 1001.3
20220529121202 71 121 3.0 9.0 0.00 0.00 0.00 89 1001.3
20220529120656 71 116 3.0 9.0 0.00 0.00 0.00 89 1001.2
20220529120148 71 198 3.0 9.0 0.00 0.00 0.00 89 1001.2
20220529115650 71 200 2.0 8.0 0.00 0.00 0.00 88 1001.2
20220529115147 71 300 2.0 10.0 0.00 0.00 0.00 88 1001.2
20220529114648 71 113 2.0 10.0 0.00 0.00 0.00 88 1001.2
20220529113644 71 150 2.0 9.0 0.00 0.00 0.00 88 1001.2
20220529113145 70 117 2.0 8.0 0.00 0.00 0.00 88 1001.1
20220529112644 70 165 2.0 8.0 0.00 0.00 0.00 88 1001.1
20220529112142 70 244 2.0 8.0 0.00 0.00 0.00 87 1001.1
20220529111641 70 211 2.0 7.0 0.00 0.00 0.00 87 1000.7
20220529111140 70 142 2.0 9.0 0.00 0.00 0.00 87 1000.7
20220529110641 71 113 3.0 9.0 0.00 0.00 0.00 87 1000.7
20220529110142 71 146 3.0 9.0 0.00 0.00 0.00 87 1000.7
20220529105640 71 167 3.0 9.0 0.00 0.00 0.00 87 1000.7
20220529105139 71 202 3.0 10.0 0.00 0.00 0.00 87 1000.7
20220529104639 71 143 2.0 10.0 0.00 0.00 0.00 87 1000.7
20220529104140 71 150 2.0 7.0 0.00 0.00 0.00 87 1000.7
20220529103635 71 117 2.0 8.0 0.00 0.00 0.00 87 1000.7
20220529103131 71 182 2.0 8.0 0.00 0.00 0.00 87 1000.5
20220529102637 71 136 2.0 6.0 0.00 0.00 0.00 87 1000.5
20220529102128 71 196 3.0 9.0 0.00 0.00 0.00 87 1000.5
20220529101621 71 113 3.0 9.0 0.00 0.00 0.00 87 1000.7
20220529101121 71 80 2.0 10.0 0.00 0.00 0.00 87 1000.7
20220529100624 71 128 2.0 10.0 0.00 0.00 0.00 87 1000.7
20220529100123 71 90 1.0 6.0 0.00 0.00 0.00 87 1000.7
20220529095621 71 148 2.0 7.0 0.00 0.00 0.00 87 1000.7
20220529095120 71 128 2.0 7.0 0.00 0.00 0.00 87 1000.7
20220529094616 72 175 2.0 7.0 0.00 0.00 0.00 87 1000.7
20220529094109 72 157 1.0 6.0 0.00 0.00 0.00 86 1000.7
20220529093611 72 137 1.0 7.0 0.00 0.00 0.00 86 1000.7
20220529093111 72 156 2.0 9.0 0.00 0.00 0.00 86 1000.7
20220529092607 72 192 3.0 9.0 0.00 0.00 0.00 86 1000.7
20220529092107 73 101 3.0 8.0 0.00 0.00 0.00 86 1000.7
20220529091609 73 150 3.0 8.0 0.00 0.00 0.00 85 1000.7
20220529091107 73 144 2.0 7.0 0.00 0.00 0.00 85 1000.8
20220529090610 73 154 2.0 8.0 0.00 0.00 0.00 85 1000.8
20220529090110 73 118 3.0 8.0 0.00 0.00 0.00 85 1000.9
20220529085603 73 136 3.0 9.0 0.00 0.00 0.00 84 1000.9
20220529085109 73 157 3.0 9.0 0.00 0.00 0.00 84 1000.9
20220529084604 74 140 3.0 8.0 0.00 0.00 0.00 84 1001.0
20220529084103 74 155 3.0 7.0 0.00 0.00 0.00 84 1001.0
20220529083605 74 109 3.0 9.0 0.00 0.00 0.00 84 1001.0
20220529083106 74 113 3.0 9.0 0.00 0.00 0.00 84 1001.2
20220529082557 74 179 3.0 7.0 0.00 0.00 0.00 84 1001.2
20220529082057 74 155 3.0 6.0 0.00 0.00 0.00 84 1001.2
20220529081601 74 171 2.0 7.0 0.00 0.00 0.00 83 1001.3
20220529081049 74 166 2.0 7.0 0.00 0.00 0.00 83 1001.3
20220529080552 74 153 2.0 6.0 0.00 0.00 0.00 83 1001.3
20220529080049 74 91 2.0 7.0 0.00 0.00 0.00 83 1001.3
20220529075549 75 150 2.0 8.0 0.00 0.00 0.00 83 1001.3
20220529075047 75 183 2.0 8.0 0.00 0.00 0.00 82 1001.3
20220529074548 75 125 3.0 7.0 0.00 0.00 0.00 82 1001.2
20220529074043 75 79 3.0 7.0 0.00 0.00 0.00 82 1001.2
20220529073546 75 159 2.0 6.0 0.00 0.00 0.00 82 1001.2
20220529073041 75 162 2.0 8.0 0.00 0.00 0.00 82 1001.3
20220529072540 75 100 2.0 8.0 0.00 0.00 0.00 82 1001.4
20220529072044 75 133 3.0 8.0 0.00 0.00 0.00 82 1001.4
20220529071527 75 203 3.0 8.0 0.00 0.00 0.00 82 1001.6
20220529071027 76 96 2.0 7.0 0.00 0.00 0.00 81 1001.6
20220529070513 76 133 2.0 7.0 0.00 0.00 0.00 81 1001.6
20220529070011 76 157 2.0 7.0 0.00 0.00 0.00 81 1001.7
20220529065509 76 178 3.0 7.0 0.00 0.00 0.00 81 1001.7
20220529065016 76 120 3.0 9.0 0.00 0.00 0.00 81 1001.7
20220529064508 76 200 3.0 9.0 0.00 0.00 0.00 81 1001.6
20220529064004 76 139 2.0 8.0 0.00 0.00 0.00 81 1001.6
20220529063501 76 182 2.0 9.0 0.00 0.00 0.00 81 1001.6
20220529063003 76 162 3.0 9.0 0.00 0.00 0.00 81 1001.6
20220529062502 76 191 3.0 9.0 0.00 0.00 0.00 81 1001.6
20220529062004 76 140 2.0 9.0 0.00 0.00 0.00 81 1001.6
20220529061457 76 95 3.0 7.0 0.00 0.00 0.00 82 1001.4
20220529060959 76 168 4.0 9.0 0.00 0.00 0.00 82 1001.4
20220529060458 76 217 4.0 11.0 0.00 0.00 0.00 82 1001.4
20220529055953 76 128 3.0 11.0 0.00 0.00 0.00 81 1001.7
20220529055453 76 173 4.0 11.0 0.00 0.00 0.00 81 1001.7
20220529054956 76 118 5.0 11.0 0.00 0.00 0.00 81 1001.7
20220529054452 76 125 4.0 10.0 0.00 0.00 0.00 81 1002.0
20220529053952 76 236 4.0 10.0 0.00 0.00 0.00 81 1002.0
20220529053454 76 149 4.0 10.0 0.00 0.00 0.00 80 1002.0
20220529052954 76 132 3.0 9.0 0.00 0.00 0.00 80 1002.4
20220529052454 76 114 3.0 8.0 0.00 0.00 0.00 80 1002.4
20220529051952 76 98 2.0 6.0 0.00 0.00 0.00 80 1002.4
20220529051453 76 117 2.0 5.0 0.00 0.00 0.00 80 1002.9
20220529050947 76 126 2.0 5.0 0.00 0.00 0.00 79 1002.9
20220529050444 76 93 2.0 4.0 0.00 0.00 0.00 79 1002.9
20220529045946 76 169 1.0 5.0 0.00 0.00 0.00 79 1003.0
20220529045446 76 124 1.0 5.0 0.00 0.00 0.00 79 1003.0
20220529044949 76 122 1.0 4.0 0.00 0.00 0.00 78 1003.0
20220529044448 76 86 1.0 4.0 0.00 0.00 0.00 78 1003.0
20220529043943 77 107 0.0 4.0 0.00 0.00 0.00 77 1003.0
20220529043445 77 196 0.0 4.0 0.00 0.00 0.00 76 1003.0
20220529042914 77 115 0.0 2.0 0.00 0.00 0.00 76 1002.7
20220529042408 77 115 0.0 2.0 0.00 0.00 0.00 75 1002.7
20220529041910 77 114 0.0 2.0 0.00 0.00 0.00 75 1002.7
20220529041402 78 114 0.0 3.0 0.00 0.00 0.00 75 1002.4
20220529040905 78 114 1.0 4.0 0.00 0.00 0.00 74 1002.4
20220529040358 78 115 0.0 4.0 0.00 0.00 0.00 74 1002.4
20220529035900 78 176 1.0 4.0 0.00 0.00 0.00 74 1002.6
20220529035357 78 188 1.0 4.0 0.00 0.00 0.00 73 1002.6
20220529034849 78 105 0.0 2.0 0.00 0.00 0.00 73 1002.6
20220529034349 78 103 1.0 2.0 0.00 0.00 0.00 73 1002.2
20220529033853 79 100 1.0 4.0 0.00 0.00 0.00 72 1002.2
20220529033348 79 67 1.0 4.0 0.00 0.00 0.00 72 1002.2
20220529032848 79 180 1.0 4.0 0.00 0.00 0.00 71 1002.1
20220529032350 79 80 1.0 4.0 0.00 0.00 0.00 71 1002.1
20220529031849 79 176 1.0 5.0 0.00 0.00 0.00 71 1002.1
20220529031343 79 87 2.0 5.0 0.00 0.00 0.00 70 1002.0
20220529030842 80 176 2.0 6.0 0.00 0.00 0.00 70 1002.0
20220529030348 80 101 2.0 7.0 0.00 0.00 0.00 70 1002.1
20220529025848 80 111 2.0 7.0 0.00 0.00 0.00 69 1002.0
20220529025346 80 142 2.0 9.0 0.00 0.00 0.00 69 1002.0
20220529024848 80 215 2.0 9.0 0.00 0.00 0.00 68 1002.0
20220529024339 80 155 1.0 4.0 0.00 0.00 0.00 68 1002.1
20220529023841 81 169 1.0 5.0 0.00 0.00 0.00 68 1002.1
20220529023338 81 183 2.0 7.0 0.00 0.00 0.00 68 1002.1
20220529022836 81 129 2.0 7.0 0.00 0.00 0.00 67 1002.0
20220529022332 81 172 2.0 5.0 0.00 0.00 0.00 67 1002.0
20220529021831 81 223 2.0 6.0 0.00 0.00 0.00 66 1002.0
20220529021333 81 201 1.0 6.0 0.00 0.00 0.00 66 1001.8
20220529020829 81 153 0.0 4.0 0.00 0.00 0.00 66 1001.8
20220529020326 82 117 1.0 6.0 0.00 0.00 0.00 65 1001.8
20220529015821 82 157 2.0 7.0 0.00 0.00 0.00 65 1001.8
20220529015320 82 103 2.0 7.0 0.00 0.00 0.00 65 1001.8
20220529014817 82 196 2.0 7.0 0.00 0.00 0.00 64 1001.8
20220529014318 82 140 2.0 7.0 0.00 0.00 0.00 64 1001.7
20220529013818 83 184 3.0 7.0 0.00 0.00 0.00 64 1001.7
20220529013313 83 145 3.0 7.0 0.00 0.00 0.00 63 1001.5
20220529012811 83 130 3.0 7.0 0.00 0.00 0.00 63 1001.5
20220529012309 83 115 3.0 7.0 0.00 0.00 0.00 63 1001.5
20220529011802 83 141 2.0 7.0 0.00 0.00 0.00 63 1001.5
20220529011302 84 97 3.0 7.0 0.00 0.00 0.00 62 1001.5
20220529010803 84 104 3.0 8.0 0.00 0.00 0.00 62 1001.6
20220529010300 84 237 3.0 8.0 0.00 0.00 0.00 62 1001.5
20220529005803 85 145 3.0 8.0 0.00 0.00 0.00 61 1001.5
20220529005300 85 116 3.0 8.0 0.00 0.00 0.00 61 1001.5
20220529004800 85 95 2.0 11.0 0.00 0.00 0.00 61 1002.0
20220529004259 85 76 3.0 11.0 0.00 0.00 0.00 60 1002.0
20220529003754 85 118 3.0 8.0 0.00 0.00 0.00 60 1002.0
20220529003243 86 68 4.0 8.0 0.00 0.00 0.00 59 1001.8
20220529002746 86 80 4.0 10.0 0.00 0.00 0.00 59 1001.8
20220529002246 86 157 4.0 10.0 0.00 0.00 0.00 59 1001.9
20220529001745 86 136 4.0 9.0 0.00 0.00 0.00 59 1002.1
20220529001245 86 148 4.0 9.0 0.00 0.00 0.00 58 1002.1
20220529000740 86 151 3.0 8.0 0.00 0.00 0.00 58 1002.1
20220529000234 87 133 4.0 11.0 0.00 0.00 0.00 58 1002.1
20220528235734 87 98 4.0 11.0 0.00 0.00 0.00 58 1002.1
20220528235236 87 205 3.0 9.0 0.00 0.00 0.00 57 1002.1
20220528234735 87 99 4.0 9.0 0.00 0.00 0.00 57 1002.2
20220528234228 87 54 5.0 12.0 0.00 0.00 0.00 57 1002.2
20220528233727 87 168 5.0 12.0 0.00 0.00 0.00 56 1002.2
20220528233227 87 138 5.0 9.0 0.00 0.00 0.00 57 1002.6
20220528232724 87 223 5.0 12.0 0.00 0.00 0.00 57 1002.6
20220528232224 88 182 4.0 12.0 0.00 0.00 0.00 56 1002.6
20220528231724 88 96 4.0 12.0 0.00 0.00 0.00 56 1002.7
20220528231224 88 188 5.0 12.0 0.00 0.00 0.00 55 1002.7
20220528230724 88 174 5.0 12.0 0.00 0.00 0.00 56 1002.7
20220528230224 88 126 5.0 13.0 0.00 0.00 0.00 55 1003.0
20220528225724 89 195 5.0 13.0 0.00 0.00 0.00 54 1003.0
20220528225224 89 134 5.0 13.0 0.00 0.00 0.00 54 1003.2
20220528224727 89 86 5.0 10.0 0.00 0.00 0.00 53 1003.4
20220528224221 90 215 5.0 13.0 0.00 0.00 0.00 53 1003.4
20220528223717 90 200 5.0 13.0 0.00 0.00 0.00 52 1003.4
20220528223213 90 118 5.0 12.0 0.00 0.00 0.00 52 1003.3
20220528222714 91 128 5.0 13.0 0.00 0.00 0.00 52 1003.3
20220528222208 91 128 5.0 13.0 0.00 0.00 0.00 51 1003.3
20220528221711 91 96 5.0 10.0 0.00 0.00 0.00 51 1003.4
20220528221210 91 244 5.0 15.0 0.00 0.00 0.00 51 1003.4
20220528220710 91 249 5.0 15.0 0.00 0.00 0.00 51 1003.4
20220528220208 91 97 5.0 18.0 0.00 0.00 0.00 50 1003.6
20220528215710 91 187 4.0 18.0 0.00 0.00 0.00 50 1003.6
20220528215209 91 175 5.0 13.0 0.00 0.00 0.00 52 1003.6
20220528214711 91 277 5.0 13.0 0.00 0.00 0.00 51 1003.9
20220528214204 91 165 6.0 11.0 0.00 0.00 0.00 50 1003.9
20220528213704 91 181 6.0 13.0 0.00 0.00 0.00 50 1003.9
20220528213205 92 209 5.0 13.0 0.00 0.00 0.00 51 1004.1
20220528212704 91 138 5.0 11.0 0.00 0.00 0.00 51 1004.0
20220528212206 91 168 5.0 15.0 0.00 0.00 0.00 52 1004.0
20220528211706 91 165 6.0 15.0 0.00 0.00 0.00 51 1004.4
20220528211207 91 143 6.0 18.0 0.00 0.00 0.00 51 1004.4
20220528210706 91 98 6.0 18.0 0.00 0.00 0.00 51 1004.4
20220528210206 91 239 5.0 18.0 0.00 0.00 0.00 51 1004.7
20220528205704 91 167 6.0 18.0 0.00 0.00 0.00 51 1004.7
20220528205202 91 132 5.0 13.0 0.00 0.00 0.00 51 1004.7
20220528204719 91 99 5.0 15.0 0.00 0.00 0.00 52 1005.0
20220528204205 91 135 6.0 15.0 0.00 0.00 0.00 51 1005.0
20220528203700 91 77 6.0 14.0 0.00 0.00 0.00 50 1005.0
20220528203159 92 140 5.0 14.0 0.00 0.00 0.00 50 1005.5
20220528202701 92 97 5.0 11.0 0.00 0.00 0.00 51 1005.5
20220528202202 91 259 5.0 12.0 0.00 0.00 0.00 51 1005.5
20220528201701 91 91 5.0 12.0 0.00 0.00 0.00 50 1005.7
20220528201202 91 56 5.0 11.0 0.00 0.00 0.00 51 1005.7
20220528200703 91 91 5.0 11.0 0.00 0.00 0.00 51 1005.7
20220528200203 91 317 5.0 14.0 0.00 0.00 0.00 51 1006.0
20220528195701 91 118 5.0 14.0 0.00 0.00 0.00 50 1006.0
20220528195203 91 100 6.0 15.0 0.00 0.00 0.00 51 1006.0
20220528194655 91 205 6.0 15.0 0.00 0.00 0.00 50 1006.2
20220528194154 91 72 6.0 13.0 0.00 0.00 0.00 50 1006.1
20220528193654 91 167 5.0 13.0 0.00 0.00 0.00 50 1006.2
20220528193153 91 113 5.0 13.0 0.00 0.00 0.00 51 1006.5
20220528192652 91 190 5.0 13.0 0.00 0.00 0.00 50 1006.4
20220528192152 91 142 5.0 11.0 0.00 0.00 0.00 50 1006.5
20220528191653 91 114 4.0 9.0 0.00 0.00 0.00 50 1006.8
20220528191148 91 163 4.0 9.0 0.00 0.00 0.00 50 1006.8
20220528190649 91 148 5.0 13.0 0.00 0.00 0.00 50 1006.7
20220528190149 90 215 5.0 13.0 0.00 0.00 0.00 49 1007.3
20220528185648 91 142 5.0 12.0 0.00 0.00 0.00 48 1007.3
20220528185149 91 148 5.0 11.0 0.00 0.00 0.00 49 1007.3
20220528184653 91 157 5.0 11.0 0.00 0.00 0.00 48 1007.5
20220528184148 91 216 4.0 11.0 0.00 0.00 0.00 47 1007.5
20220528183649 91 161 3.0 9.0 0.00 0.00 0.00 49 1007.5
20220528182649 90 190 4.0 10.0 0.00 0.00 0.00 48 1007.7
20220528182141 89 194 4.0 9.0 0.00 0.00 0.00 50 1007.6
20220528181638 89 186 5.0 15.0 0.00 0.00 0.00 49 1007.7
20220528181138 89 141 5.0 15.0 0.00 0.00 0.00 49 1007.7
20220528180638 88 145 5.0 9.0 0.00 0.00 0.00 50 1007.7
20220528180129 88 128 5.0 11.0 0.00 0.00 0.00 50 1008.0
20220528175621 87 78 6.0 18.0 0.00 0.00 0.00 48 1007.9
20220528175123 88 209 6.0 18.0 0.00 0.00 0.00 48 1008.0
20220528174622 88 137 5.0 13.0 0.00 0.00 0.00 48 1008.2
20220528174121 88 192 5.0 11.0 0.00 0.00 0.00 48 1008.2
20220528173626 87 217 5.0 11.0 0.00 0.00 0.00 47 1008.1
20220528173123 87 132 6.0 13.0 0.00 0.00 0.00 47 1008.1
20220528172622 87 138 6.0 13.0 0.00 0.00 0.00 46 1008.1
20220528172122 87 113 5.0 13.0 0.00 0.00 0.00 47 1008.1
20220528171619 87 178 4.0 11.0 0.00 0.00 0.00 47 1008.4
20220528171115 87 205 5.0 13.0 0.00 0.00 0.00 46 1008.4
20220528170619 87 166 5.0 13.0 0.00 0.00 0.00 47 1008.4
20220528170116 87 129 5.0 10.0 0.00 0.00 0.00 46 1008.6
20220528165617 87 150 5.0 10.0 0.00 0.00 0.00 46 1008.6
20220528165112 87 138 4.0 11.0 0.00 0.00 0.00 45 1008.6
20220528164613 88 99 4.0 11.0 0.00 0.00 0.00 45 1009.1
20220528164111 87 81 3.0 9.0 0.00 0.00 0.00 46 1009.1
20220528163611 87 94 4.0 15.0 0.00 0.00 0.00 47 1009.1
20220528163109 86 96 4.0 15.0 0.00 0.00 0.00 44 1009.3
20220528162611 86 126 4.0 10.0 0.00 0.00 0.00 45 1009.3
20220528162109 85 168 4.0 10.0 0.00 0.00 0.00 45 1009.3
20220528161611 85 132 4.0 10.0 0.00 0.00 0.00 46 1009.3
20220528161110 85 142 5.0 10.0 0.00 0.00 0.00 46 1009.3
20220528160611 85 261 5.0 10.0 0.00 0.00 0.00 46 1009.3
20220528160109 85 94 4.0 10.0 0.00 0.00 0.00 45 1009.3
20220528155609 85 192 4.0 11.0 0.00 0.00 0.00 46 1009.3
20220528155105 85 225 4.0 11.0 0.00 0.00 0.00 46 1009.3
20220528154605 85 150 3.0 10.0 0.00 0.00 0.00 46 1009.5
20220528154104 85 35 3.0 10.0 0.00 0.00 0.00 47 1009.5
20220528153608 84 105 3.0 7.0 0.00 0.00 0.00 47 1009.4
20220528153101 84 196 4.0 10.0 0.00 0.00 0.00 46 1009.4
20220528152557 83 87 4.0 10.0 0.00 0.00 0.00 45 1009.4
20220528152059 83 122 4.0 8.0 0.00 0.00 0.00 46 1009.4
20220528151558 83 109 3.0 8.0 0.00 0.00 0.00 47 1009.5
20220528151057 82 170 3.0 7.0 0.00 0.00 0.00 47 1009.5
20220528150600 82 160 3.0 8.0 0.00 0.00 0.00 49 1009.4
20220528150055 81 161 5.0 9.0 0.00 0.00 0.00 49 1009.4
20220528145553 81 133 4.0 13.0 0.00 0.00 0.00 48 1009.4
20220528145054 81 109 3.0 13.0 0.00 0.00 0.00 51 1009.4
20220528144553 80 215 3.0 8.0 0.00 0.00 0.00 51 1009.4
20220528144054 80 153 3.0 9.0 0.00 0.00 0.00 52 1009.3
20220528143555 79 80 3.0 9.0 0.00 0.00 0.00 54 1009.3
20220528143057 78 196 3.0 9.0 0.00 0.00 0.00 54 1009.4
20220528142550 78 163 3.0 9.0 0.00 0.00 0.00 56 1009.4
20220528142051 77 133 3.0 9.0 0.00 0.00 0.00 58 1009.3
20220528141549 77 165 3.0 10.0 0.00 0.00 0.00 58 1009.2
20220528141049 76 161 3.0 10.0 0.00 0.00 0.00 60 1009.2
20220528140549 76 192 3.0 10.0 0.00 0.00 0.00 61 1009.1
20220528140050 75 229 3.0 10.0 0.00 0.00 0.00 60 1009.1
20220528135548 74 150 2.0 9.0 0.00 0.00 0.00 63 1009.1
20220528135049 74 105 2.0 8.0 0.00 0.00 0.00 65 1009.0
20220528134549 73 130 3.0 8.0 0.00 0.00 0.00 65 1009.1
20220528134046 72 124 3.0 8.0 0.00 0.00 0.00 67 1009.1
20220528133545 71 168 2.0 8.0 0.00 0.00 0.00 69 1009.0
20220528133047 70 157 2.0 8.0 0.00 0.00 0.00 70 1009.1
20220528132546 69 80 2.0 7.0 0.00 0.00 0.00 73 1009.0
20220528132041 69 165 1.0 7.0 0.00 0.00 0.00 76 1009.0
20220528131536 68 138 1.0 5.0 0.00 0.00 0.00 77 1008.8
20220528131037 67 195 1.0 5.0 0.00 0.00 0.00 78 1008.8
20220528130540 67 155 0.0 4.0 0.00 0.00 0.00 78 1008.7
20220528130040 67 150 1.0 4.0 0.00 0.00 0.00 78 1008.5
20220528125531 66 152 1.0 4.0 0.00 0.00 0.00 78 1008.5